Temperature
1 2 1 1 1 1 1 1 1 2 1 1 0 -1 -1 -1 -1 -2 -2 -3 -3 -3 -3 -3 -3 -2 -2 -2 -1 -1 -1 -1 -1 -1 -1 -1 -0 -0 -1 -1 -1 -1 -0 -0
-0 1 1 1 0 0 1 1 0 1 0 0 -0 -0 -1 -1 -2 -3 -3 -4 -4 -4 -4 -3 -3 -3 -2 -2 -2 -2 -1 -1 -1 -1 -1 -1 -1 -1 -1 -1 -1 -1 -1 -1
-0 0 0 -0 -1 -1 -1 -1 -1 -0 -0 -1 -2 -2 -2 -2 -3 -3 -4 -4 -4 -4 -4 -3 -3 -3 -3 -3 -3 -2 -2 -2 -2 -2 -2 -2 -2 -2 -2 -2 -2 -2 -2 -2
-1 -1 -1 -0 -1 -1 -1 -2 -2 -2 -2 -2 -2 -2 -2 -3 -3 -4 -4 -4 -4 -4 -4 -3 -3 -3 -3 -3 -3 -3 -3 -3 -3 -2 -2 -2 -2 -2 -2 -3 -3 -3 -3 -3
-1 -1 -1 -0 -1 -2 -2 -3 -3 -3 -2 -2 -3 -3 -3 -3 -4 -4 -4 -4 -4 -4 -4 -4 -4 -4 -4 -4 -4 -4 -3 -3 -3 -3 -3 -3 -3 -3 -3 -3 -3 -4 -4 -4
-2 -1 -1 -1 -2 -2 -3 -3 -3 -3 -3 -4 -4 -4 -4 -4 -4 -4 -5 -5 -5 -4 -4 -4 -4 -4 -4 -4 -4 -4 -4 -4 -4 -4 -4 -4 -4 -4 -4 -4 -4 -4 -4 -4
-3 -2 -2 -3 -3 -3 -2 -2 -3 -3 -3 -4 -5 -4 -5 -5 -5 -5 -5 -5 -5 -5 -5 -5 -5 -5 -5 -5 -5 -5 -5 -5 -5 -4 -4 -4 -5 -5 -5 -5 -5 -5 -5 -5
-3 -3 -2 -4 -4 -4 -4 -3 -3 -4 -4 -4 -5 -5 -5 -6 -6 -6 -6 -6 -6 -6 -6 -6 -6 -6 -6 -6 -6 -6 -5 -5 -5 -5 -5 -5 -5 -5 -5 -5 -6 -6 -6 -6
-3 -3 -3 -4 -4 -4 -4 -4 -4 -4 -4 -5 -5 -6 -6 -7 -7 -7 -7 -7 -7 -6 -6 -6 -6 -6 -7 -7 -6 -6 -6 -6 -6 -6 -6 -6 -6 -6 -6 -6 -6 -6 -7 -7
-4 -4 -4 -4 -4 -4 -4 -4 -4 -5 -5 -5 -6 -6 -7 -7 -8 -7 -7 -7 -7 -7 -7 -7 -7 -7 -7 -7 -7 -7 -7 -7 -7 -7 -7 -7 -7 -7 -7 -7 -7 -7 -7 -8
-5 -5 -5 -4 -4 -5 -5 -5 -5 -5 -6 -6 -7 -7 -7 -8 -8 -8 -8 -7 -7 -8 -8 -8 -8 -8 -8 -8 -8 -8 -8 -8 -8 -8 -8 -8 -8 -8 -8 -8 -8 -8 -8 -8
-5 -5 -5 -5 -5 -5 -5 -6 -6 -6 -6 -7 -7 -8 -8 -8 -8 -8 -8 -8 -8 -8 -9 -9 -9 -9 -9 -9 -9 -9 -9 -9 -9 -9 -9 -9 -9 -9 -9 -9 -9 -9 -9 -9
-5 -5 -5 -5 -5 -6 -6 -6 -7 -7 -7 -7 -8 -8 -8 -9 -9 -9 -9 -9 -9 -9 -9 -9 -9 -9 -9 -9 -9 -9 -9 -9 -9 -10 -10 -10 -10 -10 -9 -9 -9 -9 -9 -9
-5 -5 -6 -6 -7 -7 -7 -7 -7 -7 -8 -8 -8 -9 -9 -9 -9 -10 -10 -10 -10 -9 -9 -9 -10 -10 -10 -10 -10 -10 -10 -10 -10 -10 -10 -10 -10 -10 -10 -10 -10 -10 -10 -10
-6 -7 -7 -7 -8 -8 -8 -8 -8 -8 -9 -9 -9 -9 -10 -10 -10 -10 -10 -10 -10 -10 -10 -10 -10 -10 -10 -10 -10 -10 -10 -11 -11 -11 -11 -11 -11 -11 -11 -11 -11 -11 -11 -11
-7 -7 -8 -8 -8 -9 -9 -9 -9 -9 -9 -10 -10 -10 -10 -10 -10 -11 -10 -10 -10 -10 -10 -10 -11 -11 -11 -11 -11 -11 -11 -11 -11 -11 -11 -11 -11 -11 -12 -12 -12 -12 -12 -12
-8 -9 -9 -9 -9 -9 -9 -9 -10 -10 -10 -10 -10 -10 -11 -11 -11 -11 -11 -11 -11 -11 -11 -11 -11 -11 -11 -11 -11 -11 -11 -11 -12 -12 -12 -12 -12 -12 -12 -12 -12 -12 -12 -12
-8 -8 -9 -9 -9 -9 -10 -10 -10 -10 -11 -11 -11 -11 -11 -11 -11 -11 -11 -11 -11 -11 -11 -11 -11 -11 -11 -11 -11 -11 -12 -12 -12 -12 -12 -12 -12 -12 -12 -13 -13 -13 -13 -13
-8 -9 -9 -9 -9 -10 -10 -10 -10 -11 -11 -11 -11 -11 -11 -11 -11 -11 -11 -11 -11 -11 -11 -11 -12 -12 -12 -12 -12 -12 -12 -12 -12 -12 -13 -13 -13 -13 -13 -13 -13 -13 -13 -13
-9 -9 -9 -10 -10 -10 -10 -10 -11 -11 -11 -11 -11 -11 -11 -11 -11 -11 -11 -11 -12 -12 -12 -12 -12 -12 -12 -12 -12 -12 -12 -12 -13 -13 -13 -13 -13 -13 -13 -13 -14 -14 -14 -14
-9 -10 -10 -10 -10 -10 -11 -11 -11 -11 -11 -11 -11 -11 -12 -12 -12 -12 -12 -12 -12 -12 -12 -12 -12 -12 -12 -13 -13 -13 -13 -13 -13 -13 -13 -13 -14 -14 -14 -14 -14 -14 -14 -14
-10 -10 -10 -11 -11 -11 -11 -11 -11 -11 -12 -12 -12 -12 -12 -12 -12 -12 -12 -12 -12 -12 -12 -12 -13 -13 -13 -13 -13 -13 -13 -13 -13 -14 -14 -14 -14 -14 -14 -14 -14 -15 -15 -15
-11 -11 -11 -11 -11 -11 -11 -11 -11 -12 -12 -12 -12 -12 -12 -12 -12 -12 -13 -13 -13 -13 -13 -13 -13 -13 -13 -13 -13 -13 -13 -14 -14 -14 -14 -14 -14 -15 -15 -15 -15 -15 -15 -15
-11 -11 -11 -11 -12 -12 -12 -12 -12 -12 -12 -12 -12 -13 -13 -13 -13 -13 -13 -13 -13 -13 -13 -13 -13 -13 -13 -13 -14 -14 -14 -14 -14 -14 -15 -15 -15 -15 -15 -15 -15 -15 -15 -16
-11 -11 -12 -12 -12 -12 -12 -12 -12 -12 -13 -13 -13 -13 -13 -13 -13 -13 -13 -13 -13 -13 -13 -13 -14 -14 -14 -14 -14 -14 -14 -15 -15 -15 -15 -15 -15 -15 -15 -16 -16 -16 -16 -16
-12 -12 -12 -12 -12 -13 -13 -13 -13 -13 -13 -13 -13 -13 -13 -14 -14 -14 -14 -14 -14 -14 -14 -14 -14 -14 -14 -14 -15 -15 -15 -15 -15 -15 -15 -15 -15 -16 -16 -16 -16 -16 -16 -16
-12 -12 -13 -13 -13 -13 -13 -13 -13 -13 -13 -13 -13 -14 -14 -14 -14 -14 -14 -14 -14 -14 -14 -14 -15 -15 -15 -15 -15 -15 -15 -15 -15 -15 -16 -16 -16 -16 -16 -16 -16 -16 -16 -16
Wind_Speed
8 8 7 8 8 7 9 9 8 8 6 6 3 2 2 2 1 1 2 2 2 2 2 2 2 2 2 2 1 0 1 1 1 2 2 3 4 4 4 4 4 4 4 3
6 8 8 11 10 10 10 9 11 10 10 4 1 1 1 1 1 1 2 2 3 2 3 3 2 2 2 2 1 1 2 1 2 2 3 3 3 4 4 4 4 4 4 4
5 3 5 7 6 7 5 5 6 9 7 1 2 3 2 2 1 2 2 3 3 2 2 2 2 2 2 2 1 1 1 1 2 2 3 2 3 3 4 4 3 4 4 3
4 3 6 5 1 2 4 6 6 6 5 3 3 4 2 1 1 1 2 3 3 3 2 2 2 2 1 1 0 1 1 1 2 2 2 2 3 3 3 3 4 4 4 3
3 4 6 3 1 1 2 5 4 6 5 3 1 3 2 1 1 1 2 2 2 2 2 1 1 1 1 1 1 1 1 1 1 2 2 3 3 2 2 3 3 3 3 4
4 4 5 3 0 1 1 5 2 2 4 1 2 2 3 2 2 2 2 2 2 2 2 1 1 1 0 0 1 1 1 1 1 2 2 3 3 2 2 2 2 3 3 3
6 5 5 3 1 1 2 4 3 2 2 1 3 3 2 1 2 2 2 2 2 2 2 2 2 1 1 1 1 1 1 1 2 2 2 3 3 2 3 3 3 3 3 2
4 5 7 1 3 4 4 2 2 2 2 2 2 2 1 1 2 2 3 3 2 2 2 2 2 2 2 2 2 2 2 2 2 2 2 3 3 3 3 3 3 3 2 2
6 6 2 4 4 3 1 3 3 3 2 1 1 2 1 1 1 2 2 2 1 2 2 2 2 2 2 2 2 2 3 3 3 3 2 2 3 3 3 3 3 2 2 2
4 5 3 3 3 2 2 2 3 2 1 1 2 1 1 1 1 1 2 2 1 2 2 2 2 2 2 2 2 3 3 3 3 3 3 2 2 2 2 3 3 2 2 2
5 5 4 3 3 3 2 1 2 2 1 1 1 1 1 1 1 1 1 1 1 1 1 1 2 2 2 2 3 3 3 2 2 3 2 2 2 2 2 2 2 3 2 2
6 4 3 4 2 2 2 2 2 1 1 1 1 1 1 1 1 1 0 1 1 1 1 2 2 2 2 2 2 3 2 2 2 2 2 2 2 3 3 3 3 2 1 1
5 3 4 4 2 1 2 2 1 1 1 1 0 1 1 0 0 0 1 1 1 1 1 1 2 2 2 2 2 2 2 2 2 2 2 2 2 2 2 3 3 3 3 2
2 2 3 2 2 1 1 1 1 1 1 1 1 1 1 1 1 0 0 0 1 1 1 1 2 2 2 2 2 2 2 2 2 2 2 2 2 2 2 2 1 2 2 2
2 2 3 1 1 1 1 1 1 1 1 1 1 1 1 1 0 0 0 1 2 2 2 2 2 1 1 2 2 2 2 2 2 2 2 2 2 2 1 1 1 1 1 2
3 2 1 1 2 1 0 0 1 1 0 0 0 0 1 1 1 1 1 2 2 1 1 1 1 1 1 2 2 1 1 2 2 2 1 1 1 1 1 1 1 1 1 1
1 2 2 2 2 2 2 2 2 2 1 1 1 1 1 1 1 1 1 1 1 1 1 1 1 1 1 1 2 1 1 1 2 1 1 1 1 1 1 1 1 1 1 1
3 2 2 2 2 2 2 1 1 1 2 2 1 1 2 2 1 1 1 1 2 2 2 1 1 2 2 1 2 1 1 1 1 1 1 1 1 1 1 1 1 1 1 1
1 1 1 1 1 2 2 2 1 1 1 2 2 2 2 1 1 1 2 2 2 1 1 1 1 2 2 1 2 1 1 1 1 1 1 0 1 1 1 0 0 0 1 1
1 0 0 0 0 0 1 1 1 1 1 2 2 2 1 1 1 2 2 1 1 1 0 1 1 1 1 1 2 1 1 1 1 1 1 1 1 0 0 0 0 1 1 1
1 1 1 0 0 0 1 1 2 2 1 2 2 2 2 1 1 2 2 1 0 1 1 1 1 0 1 1 1 1 1 1 1 1 1 1 0 0 0 1 1 1 1 2
1 0 0 0 0 0 0 1 1 2 2 2 2 2 1 1 1 1 1 1 1 1 1 1 1 1 1 2 1 1 1 1 0 0 0 0 1 1 1 1 1 2 2 2
1 1 1 1 1 1 0 0 1 2 2 2 2 2 2 1 1 1 1 0 1 1 1 1 0 0 1 2 1 1 1 1 0 0 1 1 1 1 1 2 2 2 2 2
0 0 1 1 1 1 1 0 1 1 2 2 2 2 2 1 0 0 1 1 1 1 1 0 0 1 1 2 1 1 0 1 1 1 1 1 1 2 2 2 2 3 3 4
1 1 1 1 1 1 1 1 1 1 2 1 1 1 1 1 2 1 1 1 1 1 1 0 1 1 2 1 0 0 0 1 1 1 1 1 2 2 2 3 3 3 4 4
0 1 1 1 1 1 1 1 1 1 1 1 1 1 1 1 2 2 1 1 1 1 1 1 1 1 1 0 0 1 1 2 2 2 1 2 2 3 3 3 4 4 4 4
0 0 0 0 0 0 1 1 1 1 1 2 1 1 2 2 2 2 2 1 1 1 1 1 0 0 0 0 1 1 1 1 1 2 2 2 2 3 3 4 4 4 5 5
Wind_Direction
271 281 278 270 257 230 222 229 239 260 267 269 273 266 272 278 303 10 355 343 339 328 326 327 324 321 313 320 332 152 129 140 151 137 132 138 147 150 151 154 161 163 166 165
277 262 261 269 260 241 239 239 247 265 275 281 295 303 298 290 301 302 309 321 323 327 325 317 320 322 314 314 310 128 125 123 123 118 125 135 144 148 149 156 158 159 162 165
271 288 300 266 249 227 230 228 224 241 250 309 310 297 274 264 259 276 296 310 310 304 304 312 308 306 290 304 326 102 105 102 106 116 129 139 139 144 157 161 159 164 164 164
273 300 252 243 191 187 219 252 234 243 263 271 269 290 276 242 242 306 315 313 316 320 323 330 339 336 326 338 100 113 116 115 113 114 125 135 140 149 160 161 165 167 164 162
245 256 265 258 220 179 212 274 254 250 272 292 344 327 288 9 20 320 320 321 317 321 318 326 331 326 355 359 92 111 131 138 135 141 143 142 144 150 152 148 158 162 158 158
241 249 250 259 22 0 133 273 304 255 265 300 14 292 276 344 353 349 1 360 356 354 1 4 348 7 91 226 124 129 130 126 126 137 143 146 145 142 134 136 144 152 151 153
234 245 262 263 227 110 192 260 327 289 266 218 231 252 288 351 359 12 15 15 20 19 17 13 21 48 95 79 78 74 71 80 90 103 122 131 126 125 128 129 121 133 139 145
212 230 252 162 135 188 235 307 317 303 281 241 271 331 355 12 11 15 13 14 19 34 27 21 34 63 67 49 43 63 76 84 88 95 103 110 119 119 121 126 126 123 128 131
207 222 234 167 193 232 264 280 290 291 295 243 272 293 307 325 345 356 3 357 23 59 43 26 36 68 71 38 52 68 74 80 87 86 88 97 115 118 117 121 124 124 124 129
258 259 251 221 240 271 274 271 292 296 282 214 248 254 286 306 332 345 346 356 45 78 69 35 33 45 55 55 68 80 79 78 83 90 88 85 90 105 121 130 131 129 133 135
250 275 297 266 248 261 283 305 318 325 312 224 211 232 245 284 299 308 332 7 56 79 65 38 37 41 51 61 74 77 80 83 83 86 93 93 88 91 99 116 143 144 150 150
239 245 245 272 306 317 293 286 283 296 320 315 220 218 214 256 277 282 338 26 45 52 51 43 46 43 44 55 78 88 84 83 88 91 91 93 92 73 69 85 94 99 117 146
243 274 264 274 304 340 295 290 293 261 250 274 322 137 135 225 283 26 59 54 68 73 74 73 67 51 43 56 73 88 89 86 89 84 86 93 93 91 76 61 67 69 65 66
257 284 279 281 285 319 310 346 36 31 43 78 85 83 89 74 70 90 103 76 79 78 84 92 84 57 42 64 76 83 90 88 85 91 83 83 89 92 97 96 72 45 39 45
282 252 251 296 328 345 43 66 66 65 63 46 65 94 106 119 150 253 86 92 89 84 82 87 84 55 57 82 82 90 101 105 100 95 88 83 86 89 94 95 87 58 38 35
288 278 257 272 276 278 147 173 195 213 180 158 114 108 109 124 108 85 92 103 106 109 98 92 81 58 86 100 101 104 110 87 88 98 101 98 98 99 100 97 83 67 47 32
259 266 260 271 268 258 230 222 208 205 206 205 201 160 115 100 82 74 75 74 90 111 113 109 84 71 92 111 122 116 113 110 89 86 99 105 105 112 111 102 82 55 33 344
227 234 230 238 248 247 244 233 209 198 207 204 167 147 148 150 162 162 106 80 71 61 52 50 68 90 103 111 118 114 107 104 108 113 98 91 90 96 96 90 75 32 0 340
256 250 250 244 226 215 222 223 219 204 180 158 158 173 183 179 163 140 112 106 106 92 354 35 69 80 89 110 99 109 109 108 105 102 104 126 58 77 86 84 49 338 328 330
337 3 63 47 61 163 205 204 184 175 168 159 159 156 153 161 151 138 128 140 175 197 151 104 99 97 105 131 103 110 124 127 134 135 131 137 139 140 142 211 278 286 294 297
333 360 32 66 19 357 211 191 173 175 172 162 165 174 178 182 157 147 141 142 3 91 109 100 91 121 164 135 117 116 133 136 146 157 159 167 183 197 228 256 274 281 280 283
309 283 246 187 175 278 279 197 171 167 162 157 154 147 137 133 129 128 145 169 163 127 91 100 101 157 133 103 104 113 120 128 140 142 177 212 225 242 255 261 264 273 273 273
271 243 214 190 196 216 288 136 159 165 168 169 165 163 162 168 161 153 166 148 118 120 82 107 160 115 73 83 97 112 118 131 168 214 231 237 242 247 255 263 264 265 266 268
218 215 210 175 143 140 157 187 160 163 165 169 165 162 158 153 152 145 135 164 147 88 76 148 334 6 61 83 99 120 155 199 220 232 242 249 252 253 256 262 267 270 267 268
199 194 168 156 166 187 185 153 133 135 132 134 128 132 149 167 176 169 111 125 151 90 59 360 359 21 49 71 103 163 230 242 243 241 236 251 257 260 261 261 261 266 268 267
177 197 206 213 206 184 163 152 151 152 147 142 127 130 130 124 126 129 125 120 142 96 65 48 8 5 39 41 328 294 287 299 315 313 285 276 269 268 271 271 271 270 272 271
59 108 116 72 49 142 156 158 162 173 174 167 155 139 126 120 118 116 113 110 97 80 70 59 33 38 36 348 320 314 308 299 289 282 279 276 272 270 271 272 274 275 276 275
Height
1470 1466 1466 1466 1465 1465 1467 1464 1464 1456 1456 1454 1454 1454 1454 1454 1454 1454 1454 1453 1452 1451 1450 1449 1448 1448 1448 1448 1449 1450 1451 1452 1453 1455 1457 1459 1460 1462 1464 1466 1468 1470 1472 1474
1471 1465 1464 1463 1460 1461 1461 1460 1459 1456 1456 1452 1452 1452 1452 1452 1452 1452 1451 1451 1450 1449 1447 1446 1445 1445 1445 1446 1446 1447 1448 1449 1451 1453 1454 1455 1457 1459 1461 1463 1465 1467 1469 1470
1470 1464 1463 1461 1457 1457 1457 1456 1456 1455 1453 1451 1451 1451 1451 1450 1450 1450 1449 1448 1447 1446 1444 1444 1443 1443 1443 1444 1444 1445 1446 1447 1449 1450 1452 1453 1454 1456 1457 1459 1461 1463 1465 1467
1471 1469 1469 1457 1452 1452 1454 1453 1452 1451 1450 1450 1450 1449 1449 1449 1448 1448 1447 1445 1444 1443 1442 1442 1441 1441 1442 1442 1442 1443 1444 1445 1447 1448 1449 1450 1452 1453 1455 1456 1458 1460 1461 1463
1470 1467 1459 1453 1452 1453 1455 1454 1450 1450 1448 1448 1448 1447 1447 1446 1446 1446 1445 1444 1442 1441 1440 1439 1439 1439 1440 1440 1441 1441 1442 1443 1444 1445 1446 1447 1449 1450 1452 1453 1455 1457 1458 1460
1469 1466 1460 1453 1452 1450 1454 1455 1448 1447 1447 1448 1447 1449 1446 1444 1444 1443 1442 1441 1440 1438 1438 1437 1437 1437 1438 1438 1439 1439 1440 1441 1442 1443 1444 1445 1446 1448 1449 1451 1452 1454 1455 1457
1468 1465 1459 1453 1452 1451 1457 1452 1448 1446 1446 1446 1447 1447 1445 1443 1442 1440 1439 1439 1438 1436 1436 1435 1435 1436 1436 1436 1437 1437 1438 1439 1440 1441 1442 1443 1444 1445 1447 1448 1450 1451 1453 1455
1465 1463 1459 1452 1451 1453 1451 1447 1446 1445 1444 1444 1444 1443 1442 1441 1440 1438 1437 1436 1436 1435 1434 1434 1434 1434 1434 1434 1435 1436 1436 1437 1438 1439 1440 1441 1442 1443 1445 1446 1447 1449 1450 1452
1457 1455 1449 1448 1447 1447 1446 1445 1444 1443 1442 1442 1441 1440 1439 1438 1437 1436 1436 1435 1434 1434 1433 1433 1433 1433 1433 1434 1434 1434 1435 1435 1436 1437 1438 1439 1440 1441 1443 1444 1445 1446 1448 1449
1453 1447 1446 1445 1444 1444 1444 1443 1442 1441 1440 1439 1438 1438 1437 1436 1436 1435 1434 1433 1433 1433 1432 1432 1432 1432 1432 1432 1433 1433 1433 1434 1435 1436 1437 1438 1439 1440 1441 1442 1443 1444 1446 1447
1450 1446 1444 1442 1441 1441 1440 1440 1439 1438 1438 1437 1436 1436 1435 1435 1434 1433 1433 1432 1432 1431 1430 1430 1430 1431 1431 1431 1432 1432 1433 1433 1434 1435 1436 1437 1438 1439 1440 1441 1442 1443 1444 1445
1445 1442 1442 1440 1439 1438 1438 1436 1436 1435 1435 1435 1434 1434 1433 1433 1433 1432 1431 1431 1430 1430 1429 1430 1430 1430 1430 1431 1431 1431 1432 1433 1433 1434 1435 1436 1437 1438 1439 1441 1442 1443 1444 1445
1439 1438 1438 1436 1436 1435 1435 1434 1433 1433 1432 1432 1432 1432 1431 1431 1431 1430 1429 1429 1429 1429 1429 1429 1429 1430 1430 1430 1431 1431 1431 1432 1432 1433 1434 1435 1436 1436 1438 1440 1441 1442 1442 1443
1436 1435 1434 1433 1433 1432 1432 1431 1431 1430 1430 1430 1430 1429 1429 1429 1429 1428 1428 1428 1428 1428 1428 1428 1428 1429 1429 1429 1430 1430 1431 1431 1432 1433 1434 1435 1435 1436 1437 1437 1438 1439 1441 1441
1433 1432 1432 1431 1430 1430 1429 1429 1428 1428 1427 1427 1427 1427 1427 1427 1427 1427 1427 1427 1427 1427 1427 1427 1428 1428 1429 1429 1429 1429 1430 1431 1432 1433 1433 1434 1435 1435 1436 1437 1437 1438 1439 1440
1429 1429 1428 1428 1427 1427 1427 1426 1426 1425 1425 1425 1425 1425 1425 1425 1426 1426 1426 1426 1426 1426 1427 1427 1427 1428 1428 1428 1429 1429 1430 1431 1431 1432 1433 1433 1434 1434 1435 1435 1436 1437 1437 1438
1427 1426 1425 1425 1424 1424 1424 1424 1424 1424 1424 1424 1424 1424 1424 1424 1424 1425 1425 1425 1426 1426 1426 1427 1427 1427 1427 1428 1428 1428 1429 1430 1431 1431 1432 1432 1433 1433 1434 1434 1435 1435 1436 1436
1424 1424 1423 1423 1422 1422 1422 1422 1422 1422 1422 1422 1422 1422 1422 1423 1423 1423 1424 1425 1425 1425 1426 1426 1426 1427 1427 1427 1428 1428 1429 1429 1430 1430 1431 1431 1432 1432 1433 1433 1433 1434 1434 1435
1421 1421 1421 1421 1421 1421 1420 1420 1420 1420 1420 1420 1420 1421 1421 1422 1422 1423 1424 1424 1424 1424 1425 1426 1426 1426 1427 1427 1428 1428 1428 1429 1429 1430 1430 1430 1431 1431 1431 1431 1432 1432 1432 1432
1419 1419 1419 1419 1419 1419 1418 1418 1418 1418 1419 1419 1419 1420 1420 1421 1421 1422 1423 1423 1423 1424 1425 1425 1426 1426 1426 1427 1427 1427 1427 1428 1428 1428 1428 1429 1429 1429 1429 1429 1430 1430 1430 1430
1418 1417 1417 1417 1417 1417 1417 1417 1417 1417 1417 1418 1418 1418 1419 1420 1420 1421 1421 1422 1423 1424 1424 1425 1425 1425 1426 1426 1426 1426 1426 1427 1427 1427 1427 1427 1427 1427 1427 1427 1427 1427 1427 1427
1416 1416 1415 1415 1415 1415 1415 1415 1415 1415 1416 1416 1417 1417 1418 1418 1419 1420 1421 1422 1422 1423 1423 1424 1424 1424 1425 1425 1425 1425 1425 1425 1425 1425 1425 1425 1425 1425 1425 1425 1425 1425 1424 1424
1415 1414 1414 1414 1413 1413 1414 1414 1414 1414 1415 1415 1415 1416 1417 1417 1418 1419 1420 1421 1421 1422 1422 1423 1423 1424 1424 1424 1424 1423 1423 1424 1423 1423 1423 1423 1423 1422 1422 1422 1422 1421 1421 1421
1413 1413 1413 1412 1412 1412 1412 1413 1413 1413 1414 1414 1415 1415 1416 1417 1418 1418 1419 1420 1421 1421 1421 1422 1422 1422 1422 1422 1422 1422 1422 1422 1421 1421 1421 1421 1420 1420 1419 1419 1419 1418 1417 1417
1412 1412 1411 1411 1411 1411 1411 1412 1412 1412 1413 1413 1414 1415 1415 1416 1417 1417 1418 1419 1419 1420 1420 1421 1421 1421 1421 1421 1420 1420 1420 1420 1419 1419 1418 1418 1418 1417 1416 1416 1415 1414 1413 1412
1411 1411 1410 1410 1410 1410 1410 1410 1411 1411 1412 1412 1413 1414 1414 1415 1416 1416 1417 1417 1418 1419 1419 1419 1419 1419 1419 1419 1418 1418 1418 1418 1417 1417 1416 1415 1415 1414 1413 1412 1411 1410 1409 1408
1410 1410 1409 1409 1409 1409 1409 1409 1410 1410 1411 1411 1412 1412 1413 1414 1414 1415 1415 1416 1417 1417 1417 1417 1417 1417 1417 1417 1416 1416 1416 1415 1414 1414 1413 1412 1411 1410 1409 1408 1407 1406 1404 1403